Year,Month,Day,Hour,Minute,Value (Times are PST for temperature in C)
2019,06,03,00,00,13.60
2019,06,03,00,01,13.60
2019,06,03,00,02,13.60
2019,06,03,00,03,13.50
2019,06,03,00,04,13.50
2019,06,03,00,05,13.50
2019,06,03,00,06,13.50
2019,06,03,00,07,13.50
2019,06,03,00,08,13.50
2019,06,03,00,09,13.40
2019,06,03,00,10,13.40
2019,06,03,00,11,13.40
2019,06,03,00,12,13.30
2019,06,03,00,13,13.30
2019,06,03,00,14,13.30
2019,06,03,00,15,13.30
2019,06,03,00,16,13.30
2019,06,03,00,17,13.20
2019,06,03,00,18,13.20
2019,06,03,00,19,13.20
2019,06,03,00,20,13.10
2019,06,03,00,21,13.10
2019,06,03,00,22,13.10
2019,06,03,00,23,13.00
2019,06,03,00,24,13.00
2019,06,03,00,25,13.00
2019,06,03,00,26,12.90
2019,06,03,00,27,12.90
2019,06,03,00,28,12.90
2019,06,03,00,29,12.80
2019,06,03,00,30,12.80
2019,06,03,00,31,12.70
2019,06,03,00,32,12.70
2019,06,03,00,33,12.60
2019,06,03,00,34,12.60
2019,06,03,00,35,12.60
2019,06,03,00,36,12.50
2019,06,03,00,37,12.40
2019,06,03,00,38,12.30
2019,06,03,00,39,12.30
2019,06,03,00,40,12.30
2019,06,03,00,41,12.20
2019,06,03,00,42,12.10
2019,06,03,00,43,12.10
2019,06,03,00,44,12.10
2019,06,03,00,45,12.10
2019,06,03,00,46,12.00
2019,06,03,00,47,12.00
2019,06,03,00,48,12.00
2019,06,03,00,49,12.00
2019,06,03,00,50,12.00
2019,06,03,00,51,12.00
2019,06,03,00,52,12.00
2019,06,03,00,53,12.00
2019,06,03,00,54,12.00
2019,06,03,00,55,11.90
2019,06,03,00,56,11.90
2019,06,03,00,57,11.90
2019,06,03,00,58,11.80
2019,06,03,00,59,11.80
2019,06,03,01,00,11.80
2019,06,03,01,01,11.80
2019,06,03,01,02,11.80
2019,06,03,01,03,11.70
2019,06,03,01,04,11.70
2019,06,03,01,05,11.70
2019,06,03,01,06,11.60
2019,06,03,01,07,11.60
2019,06,03,01,08,11.60
2019,06,03,01,09,11.60
2019,06,03,01,10,11.50
2019,06,03,01,11,11.40
2019,06,03,01,12,11.40
2019,06,03,01,13,11.40
2019,06,03,01,14,11.40
2019,06,03,01,15,11.40
2019,06,03,01,16,11.40
2019,06,03,01,17,11.40
2019,06,03,01,18,11.40
2019,06,03,01,19,11.30
2019,06,03,01,20,11.30
2019,06,03,01,21,11.30
2019,06,03,01,22,11.30
2019,06,03,01,23,11.30
2019,06,03,01,24,11.30
2019,06,03,01,25,11.30
2019,06,03,01,26,11.30
2019,06,03,01,27,11.20
2019,06,03,01,28,11.20
2019,06,03,01,29,11.20
2019,06,03,01,30,11.20
2019,06,03,01,31,11.20
2019,06,03,01,32,11.20
2019,06,03,01,33,11.20
2019,06,03,01,34,11.20
2019,06,03,01,35,11.20
2019,06,03,01,36,11.20
2019,06,03,01,37,11.20
2019,06,03,01,38,11.20
2019,06,03,01,39,11.20
2019,06,03,01,40,11.20
2019,06,03,01,41,11.20
2019,06,03,01,42,11.20
2019,06,03,01,43,11.20
2019,06,03,01,44,11.20
2019,06,03,01,45,11.20
2019,06,03,01,46,11.20
2019,06,03,01,47,11.10
2019,06,03,01,48,11.10
2019,06,03,01,49,11.10
2019,06,03,01,50,11.10
2019,06,03,01,51,11.10
2019,06,03,01,52,11.00
2019,06,03,01,53,10.90
2019,06,03,01,54,10.90
2019,06,03,01,55,10.90
2019,06,03,01,56,10.90
2019,06,03,01,57,10.90
2019,06,03,01,58,10.90
2019,06,03,01,59,10.80
2019,06,03,02,00,10.80
2019,06,03,02,01,10.80
2019,06,03,02,02,10.70
2019,06,03,02,03,10.70
2019,06,03,02,04,10.70
2019,06,03,02,05,10.60
2019,06,03,02,06,10.60
2019,06,03,02,07,10.60
2019,06,03,02,08,10.60
2019,06,03,02,09,10.60
2019,06,03,02,10,10.60
2019,06,03,02,11,10.60
2019,06,03,02,12,10.60
2019,06,03,02,13,10.50
2019,06,03,02,14,10.40
2019,06,03,02,15,10.40
2019,06,03,02,16,10.40
2019,06,03,02,17,10.40
2019,06,03,02,18,10.30
2019,06,03,02,19,10.30
2019,06,03,02,20,10.30
2019,06,03,02,21,10.20
2019,06,03,02,22,10.20
2019,06,03,02,23,10.20
2019,06,03,02,24,10.10
2019,06,03,02,25,10.10
2019,06,03,02,26,10.10
2019,06,03,02,27,10.00
2019,06,03,02,28,9.90
2019,06,03,02,29,9.90
2019,06,03,02,30,9.90
2019,06,03,02,31,9.90
2019,06,03,02,32,9.90
2019,06,03,02,33,9.90
2019,06,03,02,34,9.90
2019,06,03,02,35,9.80
2019,06,03,02,36,9.80
2019,06,03,02,37,9.80
2019,06,03,02,38,9.70
2019,06,03,02,39,9.70
2019,06,03,02,40,9.70
2019,06,03,02,41,9.70
2019,06,03,02,42,9.70
2019,06,03,02,43,9.70
2019,06,03,02,44,9.60
2019,06,03,02,45,9.60
2019,06,03,02,46,9.60
2019,06,03,02,47,9.50
2019,06,03,02,48,9.50
2019,06,03,02,49,9.40
2019,06,03,02,50,9.40
2019,06,03,02,51,9.40
2019,06,03,02,52,9.40
2019,06,03,02,53,9.30
2019,06,03,02,54,9.30
2019,06,03,02,55,9.30
2019,06,03,02,56,9.30
2019,06,03,02,57,9.30
2019,06,03,02,58,9.20
2019,06,03,02,59,9.20
2019,06,03,03,00,9.20
2019,06,03,03,01,9.20
2019,06,03,03,02,9.20
2019,06,03,03,03,9.10
2019,06,03,03,04,9.10
2019,06,03,03,05,9.10
2019,06,03,03,06,9.00
2019,06,03,03,07,9.00
2019,06,03,03,08,9.00
2019,06,03,03,09,9.00
2019,06,03,03,10,9.00
2019,06,03,03,11,9.00
2019,06,03,03,12,9.00
2019,06,03,03,13,8.90
2019,06,03,03,14,8.90
2019,06,03,03,15,8.90
2019,06,03,03,16,8.90
2019,06,03,03,17,8.90
2019,06,03,03,18,8.90
2019,06,03,03,19,8.90
2019,06,03,03,20,8.90
2019,06,03,03,21,8.90
2019,06,03,03,22,8.80
2019,06,03,03,23,8.80
2019,06,03,03,24,8.80
2019,06,03,03,25,8.80
2019,06,03,03,26,8.70
2019,06,03,03,27,8.70
2019,06,03,03,28,8.70
2019,06,03,03,29,8.70
2019,06,03,03,30,8.70
2019,06,03,03,31,8.70
2019,06,03,03,32,8.60
2019,06,03,03,33,8.60
2019,06,03,03,34,8.60
2019,06,03,03,35,8.60
2019,06,03,03,36,8.50
2019,06,03,03,37,8.50
2019,06,03,03,38,8.50
2019,06,03,03,39,8.50
2019,06,03,03,40,8.40
2019,06,03,03,41,8.40
2019,06,03,03,42,8.40
2019,06,03,03,43,8.40
2019,06,03,03,44,8.30
2019,06,03,03,45,8.30
2019,06,03,03,46,8.30
2019,06,03,03,47,8.30
2019,06,03,03,48,8.20
2019,06,03,03,49,8.20
2019,06,03,03,50,8.20
2019,06,03,03,51,8.20
2019,06,03,03,52,8.20
2019,06,03,03,53,8.20
2019,06,03,03,54,8.20
2019,06,03,03,55,8.20
2019,06,03,03,56,8.10
2019,06,03,03,57,8.10
2019,06,03,03,58,8.10
2019,06,03,03,59,8.10
2019,06,03,04,00,8.00
2019,06,03,04,01,8.00
2019,06,03,04,02,8.00
2019,06,03,04,03,8.00
2019,06,03,04,04,8.00
2019,06,03,04,05,8.00
2019,06,03,04,06,7.90
2019,06,03,04,07,7.90
2019,06,03,04,08,7.90
2019,06,03,04,09,7.90
2019,06,03,04,10,7.90
2019,06,03,04,11,7.80
2019,06,03,04,12,7.80
2019,06,03,04,13,7.80
2019,06,03,04,14,7.80
2019,06,03,04,15,7.90
2019,06,03,04,16,7.90
2019,06,03,04,17,7.90
2019,06,03,04,18,7.90
2019,06,03,04,19,7.90
2019,06,03,04,20,7.80
2019,06,03,04,21,7.80
2019,06,03,04,22,7.80
2019,06,03,04,23,7.80
2019,06,03,04,24,7.80
2019,06,03,04,25,7.80
2019,06,03,04,26,7.80
2019,06,03,04,27,7.80
2019,06,03,04,28,7.80
2019,06,03,04,29,7.80
2019,06,03,04,30,7.80
2019,06,03,04,31,7.80
2019,06,03,04,32,7.80
2019,06,03,04,33,7.80
2019,06,03,04,34,7.80
2019,06,03,04,35,7.80
2019,06,03,04,36,7.80
2019,06,03,04,37,7.80
2019,06,03,04,38,7.80
2019,06,03,04,39,7.80
2019,06,03,04,40,7.70
2019,06,03,04,41,7.70
2019,06,03,04,42,7.70
2019,06,03,04,43,7.70
2019,06,03,04,44,7.70
2019,06,03,04,45,7.70
2019,06,03,04,46,7.60
2019,06,03,04,47,7.60
2019,06,03,04,48,7.60
2019,06,03,04,49,7.60
2019,06,03,04,50,7.60
2019,06,03,04,51,7.50
2019,06,03,04,52,7.50
2019,06,03,04,53,7.50
2019,06,03,04,54,7.50
2019,06,03,04,55,7.40
2019,06,03,04,56,7.40
2019,06,03,04,57,7.40
2019,06,03,04,58,7.30
2019,06,03,04,59,7.30
2019,06,03,05,00,7.30
2019,06,03,05,01,7.30
2019,06,03,05,02,7.50
2019,06,03,05,03,7.70
2019,06,03,05,04,7.80
2019,06,03,05,05,7.80
2019,06,03,05,06,7.80
2019,06,03,05,07,7.90
2019,06,03,05,08,8.00
2019,06,03,05,09,8.00
2019,06,03,05,10,8.20
2019,06,03,05,11,8.30
2019,06,03,05,12,8.40
2019,06,03,05,13,8.40
2019,06,03,05,14,8.50
2019,06,03,05,15,8.70
2019,06,03,05,16,8.80
2019,06,03,05,17,8.90
2019,06,03,05,18,9.00
2019,06,03,05,19,9.00
2019,06,03,05,20,9.20
2019,06,03,05,21,9.30
2019,06,03,05,22,9.40
2019,06,03,05,23,9.40
2019,06,03,05,24,9.40
2019,06,03,05,25,9.40
2019,06,03,05,26,9.40
2019,06,03,05,27,9.30
2019,06,03,05,28,9.30
2019,06,03,05,29,9.30
2019,06,03,05,30,9.20
2019,06,03,05,31,9.20
2019,06,03,05,32,9.20
2019,06,03,05,33,9.20
2019,06,03,05,34,9.20
2019,06,03,05,35,9.20
2019,06,03,05,36,9.10
2019,06,03,05,37,9.10
2019,06,03,05,38,9.10
2019,06,03,05,39,9.00
2019,06,03,05,40,9.00
2019,06,03,05,41,9.00
2019,06,03,05,42,9.00
2019,06,03,05,43,9.00
2019,06,03,05,44,9.00
2019,06,03,05,45,9.00
2019,06,03,05,46,9.10
2019,06,03,05,47,9.10
2019,06,03,05,48,9.10
2019,06,03,05,49,9.10
2019,06,03,05,50,9.10
2019,06,03,05,51,9.10
2019,06,03,05,52,9.10
2019,06,03,05,53,9.10
2019,06,03,05,54,9.10
2019,06,03,05,55,9.10
2019,06,03,05,56,9.10
2019,06,03,05,57,9.10
2019,06,03,05,58,9.10
2019,06,03,05,59,9.10
2019,06,03,06,00,9.10
2019,06,03,06,01,9.10
2019,06,03,06,02,9.00
2019,06,03,06,03,9.00
2019,06,03,06,04,9.00
2019,06,03,06,05,9.00
2019,06,03,06,06,9.00
2019,06,03,06,07,9.00
2019,06,03,06,08,9.00
2019,06,03,06,09,9.00
2019,06,03,06,10,9.00
2019,06,03,06,11,9.00
2019,06,03,06,12,9.00
2019,06,03,06,13,9.00
2019,06,03,06,14,9.00
2019,06,03,06,15,9.00
2019,06,03,06,16,9.00
2019,06,03,06,17,8.90
2019,06,03,06,18,8.90
2019,06,03,06,19,8.90
2019,06,03,06,20,8.90
2019,06,03,06,21,8.90
2019,06,03,06,22,9.00
2019,06,03,06,23,9.10
2019,06,03,06,24,9.10
2019,06,03,06,25,9.20
2019,06,03,06,26,9.20
2019,06,03,06,27,9.20
2019,06,03,06,28,9.30
2019,06,03,06,29,9.40
2019,06,03,06,30,9.40
2019,06,03,06,31,9.50
2019,06,03,06,32,9.50
2019,06,03,06,33,9.50
2019,06,03,06,34,9.50
2019,06,03,06,35,9.50
2019,06,03,06,36,9.50
2019,06,03,06,37,9.50
2019,06,03,06,38,9.50
2019,06,03,06,39,9.60
2019,06,03,06,40,9.60
2019,06,03,06,41,9.70
2019,06,03,06,42,9.70
2019,06,03,06,43,9.70
2019,06,03,06,44,9.80
2019,06,03,06,45,9.90
2019,06,03,06,46,9.90
2019,06,03,06,47,9.90
2019,06,03,06,48,10.00
2019,06,03,06,49,10.10
2019,06,03,06,50,10.00
2019,06,03,06,51,9.90
2019,06,03,06,52,9.90
2019,06,03,06,53,9.90
2019,06,03,06,54,9.90
2019,06,03,06,55,10.00
2019,06,03,06,56,10.10
2019,06,03,06,57,10.10
2019,06,03,06,58,10.10
2019,06,03,06,59,10.10
2019,06,03,07,00,10.10
2019,06,03,07,01,10.10
2019,06,03,07,02,10.10
2019,06,03,07,03,10.10
2019,06,03,07,04,10.10
2019,06,03,07,05,10.10
2019,06,03,07,06,10.10
2019,06,03,07,07,10.10
2019,06,03,07,08,10.10
2019,06,03,07,09,10.10
2019,06,03,07,10,10.10
2019,06,03,07,11,10.10
2019,06,03,07,12,10.10
2019,06,03,07,13,10.20
2019,06,03,07,14,10.20
2019,06,03,07,15,10.40
2019,06,03,07,16,10.50
2019,06,03,07,17,10.60
2019,06,03,07,18,10.60
2019,06,03,07,19,10.60
2019,06,03,07,20,10.60
2019,06,03,07,21,10.70
2019,06,03,07,22,10.80
2019,06,03,07,23,10.90
2019,06,03,07,24,11.00
2019,06,03,07,25,11.10
2019,06,03,07,26,11.10
2019,06,03,07,27,11.20
2019,06,03,07,28,11.30
2019,06,03,07,29,11.40
2019,06,03,07,30,11.40
2019,06,03,07,31,11.50
2019,06,03,07,32,11.60
2019,06,03,07,33,11.60
2019,06,03,07,34,11.70
2019,06,03,07,35,11.70
2019,06,03,07,36,11.80
2019,06,03,07,37,11.80
2019,06,03,07,38,11.90
2019,06,03,07,39,12.00
2019,06,03,07,40,12.00
2019,06,03,07,41,12.10
2019,06,03,07,42,12.20
2019,06,03,07,43,12.20
2019,06,03,07,44,12.30
2019,06,03,07,45,12.30
2019,06,03,07,46,12.30
2019,06,03,07,47,12.40
2019,06,03,07,48,12.40
2019,06,03,07,49,12.50
2019,06,03,07,50,12.60
2019,06,03,07,51,12.60
2019,06,03,07,52,12.60
2019,06,03,07,53,12.70
2019,06,03,07,54,12.70
2019,06,03,07,55,12.70
2019,06,03,07,56,12.70
2019,06,03,07,57,12.70
2019,06,03,07,58,12.80
2019,06,03,07,59,12.80
2019,06,03,08,00,12.80
2019,06,03,08,01,12.80
2019,06,03,08,02,12.80
2019,06,03,08,03,12.80
2019,06,03,08,04,12.80
2019,06,03,08,05,12.80
2019,06,03,08,06,12.90
2019,06,03,08,07,12.90
2019,06,03,08,08,12.90
2019,06,03,08,09,12.90
2019,06,03,08,10,13.00
2019,06,03,08,11,13.00
2019,06,03,08,12,13.00
2019,06,03,08,13,13.10
2019,06,03,08,14,13.10
2019,06,03,08,15,13.20
2019,06,03,08,16,13.20
2019,06,03,08,17,13.20
2019,06,03,08,18,13.30
2019,06,03,08,19,13.30
2019,06,03,08,20,13.30
2019,06,03,08,21,13.40
2019,06,03,08,22,13.50
2019,06,03,08,23,13.60
2019,06,03,08,24,13.60
2019,06,03,08,25,13.70
2019,06,03,08,26,13.70
2019,06,03,08,27,13.70
2019,06,03,08,28,13.80
2019,06,03,08,29,13.90
2019,06,03,08,30,14.00
2019,06,03,08,31,14.10
2019,06,03,08,32,14.10
2019,06,03,08,33,14.20
2019,06,03,08,34,14.20
2019,06,03,08,35,14.30
2019,06,03,08,36,14.40
2019,06,03,08,37,14.40
2019,06,03,08,38,14.50
2019,06,03,08,39,14.50
2019,06,03,08,40,14.60
2019,06,03,08,41,14.70
2019,06,03,08,42,14.70
2019,06,03,08,43,14.70
2019,06,03,08,44,14.70
2019,06,03,08,45,14.70
2019,06,03,08,46,14.70
2019,06,03,08,47,14.70
2019,06,03,08,48,14.70
2019,06,03,08,49,14.80
2019,06,03,08,50,14.80
2019,06,03,08,51,14.90
2019,06,03,08,52,15.00
2019,06,03,08,53,15.10
2019,06,03,08,54,15.20
2019,06,03,08,55,15.20
2019,06,03,08,56,15.10
2019,06,03,08,57,15.10
2019,06,03,08,58,15.10
2019,06,03,08,59,15.10
2019,06,03,09,00,15.10
2019,06,03,09,01,15.10
2019,06,03,09,02,15.20
2019,06,03,09,03,15.30
2019,06,03,09,04,15.30
2019,06,03,09,05,15.30
2019,06,03,09,06,15.40
2019,06,03,09,07,15.50
2019,06,03,09,08,15.50
2019,06,03,09,09,15.40
2019,06,03,09,10,15.40
2019,06,03,09,11,15.40
2019,06,03,09,12,15.50
2019,06,03,09,13,15.40
2019,06,03,09,14,15.30
2019,06,03,09,15,15.30
2019,06,03,09,16,15.30
2019,06,03,09,17,15.30
2019,06,03,09,18,15.30
2019,06,03,09,19,15.40
2019,06,03,09,20,15.50
2019,06,03,09,21,15.50
2019,06,03,09,22,15.50
2019,06,03,09,23,15.50
2019,06,03,09,24,15.60
2019,06,03,09,25,15.70
2019,06,03,09,26,15.70
2019,06,03,09,27,15.80
2019,06,03,09,28,15.80
2019,06,03,09,29,15.80
2019,06,03,09,30,15.80
2019,06,03,09,31,15.90
2019,06,03,09,32,16.00
2019,06,03,09,33,16.10
2019,06,03,09,34,16.10
2019,06,03,09,35,16.10
2019,06,03,09,36,16.10
2019,06,03,09,37,16.20
2019,06,03,09,38,16.20
2019,06,03,09,39,16.20
2019,06,03,09,40,16.10
2019,06,03,09,41,16.10
2019,06,03,09,42,15.90
2019,06,03,09,43,15.80
2019,06,03,09,44,15.80
2019,06,03,09,45,15.80
2019,06,03,09,46,15.80
2019,06,03,09,47,15.90
2019,06,03,09,48,16.00
2019,06,03,09,49,16.10
2019,06,03,09,50,16.10
2019,06,03,09,51,16.20
2019,06,03,09,52,16.30
2019,06,03,09,53,16.40
2019,06,03,09,54,16.40
2019,06,03,09,55,16.50
2019,06,03,09,56,16.60
2019,06,03,09,57,16.60
2019,06,03,09,58,16.70
2019,06,03,09,59,16.70
2019,06,03,10,00,16.50
2019,06,03,10,01,16.40
2019,06,03,10,02,16.40
2019,06,03,10,03,16.40
2019,06,03,10,04,16.40
2019,06,03,10,05,16.40
2019,06,03,10,06,16.50
2019,06,03,10,07,16.60
2019,06,03,10,08,16.70
2019,06,03,10,09,16.70
2019,06,03,10,10,16.70
2019,06,03,10,11,16.70
2019,06,03,10,12,16.70
2019,06,03,10,13,16.70
2019,06,03,10,14,16.60
2019,06,03,10,15,16.50
2019,06,03,10,16,16.40
2019,06,03,10,17,16.30
2019,06,03,10,18,16.30
2019,06,03,10,19,16.30
2019,06,03,10,20,16.30
2019,06,03,10,21,16.30
2019,06,03,10,22,16.30
2019,06,03,10,23,16.30
2019,06,03,10,24,16.30
2019,06,03,10,25,16.30
2019,06,03,10,26,16.30
2019,06,03,10,27,16.40
2019,06,03,10,28,16.40
2019,06,03,10,29,16.40
2019,06,03,10,30,16.40
2019,06,03,10,31,16.30
2019,06,03,10,32,16.30
2019,06,03,10,33,16.30
2019,06,03,10,34,16.40
2019,06,03,10,35,16.40
2019,06,03,10,36,16.40
2019,06,03,10,37,16.40
2019,06,03,10,38,16.50
2019,06,03,10,39,16.60
2019,06,03,10,40,16.70
2019,06,03,10,41,16.80
2019,06,03,10,42,16.90
2019,06,03,10,43,17.00
2019,06,03,10,44,17.20
2019,06,03,10,45,17.30
2019,06,03,10,46,17.40
2019,06,03,10,47,17.50
2019,06,03,10,48,17.70
2019,06,03,10,49,17.70
2019,06,03,10,50,17.80
2019,06,03,10,51,17.90
2019,06,03,10,52,17.90
2019,06,03,10,53,17.80
2019,06,03,10,54,17.70
2019,06,03,10,55,17.60
2019,06,03,10,56,17.60
2019,06,03,10,57,17.60
2019,06,03,10,58,17.70
2019,06,03,10,59,17.70
2019,06,03,11,00,17.80
2019,06,03,11,01,17.80
2019,06,03,11,02,17.80
2019,06,03,11,03,17.90
2019,06,03,11,04,17.90
2019,06,03,11,05,18.00
2019,06,03,11,06,18.10
2019,06,03,11,07,18.30
2019,06,03,11,08,18.30
2019,06,03,11,09,18.30
2019,06,03,11,10,18.30
2019,06,03,11,11,18.40
2019,06,03,11,12,18.40
2019,06,03,11,13,18.40
2019,06,03,11,14,18.40
2019,06,03,11,15,18.30
2019,06,03,11,16,18.30
2019,06,03,11,17,18.30
2019,06,03,11,18,18.20
2019,06,03,11,19,18.00
2019,06,03,11,20,17.90
2019,06,03,11,21,17.90
2019,06,03,11,22,17.80
2019,06,03,11,23,17.70
2019,06,03,11,24,17.70
2019,06,03,11,25,17.70
2019,06,03,11,26,17.70
2019,06,03,11,27,17.80
2019,06,03,11,28,17.90
2019,06,03,11,29,17.90
2019,06,03,11,30,17.90
2019,06,03,11,31,17.90
2019,06,03,11,32,17.90
2019,06,03,11,33,17.90
2019,06,03,11,34,17.90
2019,06,03,11,35,17.90
2019,06,03,11,36,17.90
2019,06,03,11,37,17.90
2019,06,03,11,38,17.90
2019,06,03,11,39,17.90
2019,06,03,11,40,17.90
2019,06,03,11,41,18.00
2019,06,03,11,42,18.10
2019,06,03,11,43,18.00
2019,06,03,11,44,17.90
2019,06,03,11,45,17.90
2019,06,03,11,46,18.10
2019,06,03,11,47,18.10
2019,06,03,11,48,18.20
2019,06,03,11,49,18.20
2019,06,03,11,50,18.20
2019,06,03,11,51,18.20
2019,06,03,11,52,18.20
2019,06,03,11,53,18.30
2019,06,03,11,54,18.40
2019,06,03,11,55,18.40
2019,06,03,11,56,18.40
2019,06,03,11,57,18.50
2019,06,03,11,58,18.50
2019,06,03,11,59,18.60
2019,06,03,12,00,18.60
2019,06,03,12,01,18.70
2019,06,03,12,02,18.70
2019,06,03,12,03,18.80
2019,06,03,12,04,18.90
2019,06,03,12,05,19.00
2019,06,03,12,06,19.10
2019,06,03,12,07,19.10
2019,06,03,12,08,19.10
2019,06,03,12,09,19.00
2019,06,03,12,10,18.80
2019,06,03,12,11,18.60
2019,06,03,12,12,18.50
2019,06,03,12,13,18.20
2019,06,03,12,14,18.10
2019,06,03,12,15,18.00
2019,06,03,12,16,17.80
2019,06,03,12,17,17.70
2019,06,03,12,18,17.60
2019,06,03,12,19,17.60
2019,06,03,12,20,17.60
2019,06,03,12,21,17.60
2019,06,03,12,22,17.70
2019,06,03,12,23,17.80
2019,06,03,12,24,17.80
2019,06,03,12,25,17.90
2019,06,03,12,26,17.80
2019,06,03,12,27,17.70
2019,06,03,12,28,17.70
2019,06,03,12,29,17.70
2019,06,03,12,30,17.70
2019,06,03,12,31,17.80
2019,06,03,12,32,17.90
2019,06,03,12,33,17.90
2019,06,03,12,34,18.00
2019,06,03,12,35,18.10
2019,06,03,12,36,18.20
2019,06,03,12,37,18.30
2019,06,03,12,38,18.30
2019,06,03,12,39,18.30
2019,06,03,12,40,18.40
2019,06,03,12,41,18.50
2019,06,03,12,42,18.60
2019,06,03,12,43,18.70
2019,06,03,12,44,18.80
2019,06,03,12,45,18.90
2019,06,03,12,46,18.90
2019,06,03,12,47,18.80
2019,06,03,12,48,18.80
2019,06,03,12,49,18.80
2019,06,03,12,50,18.90
2019,06,03,12,51,18.90
2019,06,03,12,52,18.90
2019,06,03,12,53,19.10
2019,06,03,12,54,19.10
2019,06,03,12,55,19.10
2019,06,03,12,56,19.10
2019,06,03,12,57,19.20
2019,06,03,12,58,19.30
2019,06,03,12,59,19.40
2019,06,03,13,00,19.30
2019,06,03,13,01,19.30
2019,06,03,13,02,19.20
2019,06,03,13,03,19.20
2019,06,03,13,04,19.20
2019,06,03,13,05,19.10
2019,06,03,13,06,19.10
2019,06,03,13,07,19.10
2019,06,03,13,08,19.10
2019,06,03,13,09,19.10
2019,06,03,13,10,19.10
2019,06,03,13,11,19.10
2019,06,03,13,12,19.10
2019,06,03,13,13,19.10
2019,06,03,13,14,19.10
2019,06,03,13,15,18.90
2019,06,03,13,16,18.80
2019,06,03,13,17,18.70
2019,06,03,13,18,18.70
2019,06,03,13,19,18.70
2019,06,03,13,20,18.80
2019,06,03,13,21,18.80
2019,06,03,13,22,18.90
2019,06,03,13,23,19.00
2019,06,03,13,24,19.10
2019,06,03,13,25,19.10
2019,06,03,13,26,19.30
2019,06,03,13,27,19.40
2019,06,03,13,28,19.40
2019,06,03,13,29,19.50
2019,06,03,13,30,19.60
2019,06,03,13,31,19.70
2019,06,03,13,32,19.90
2019,06,03,13,33,19.90
2019,06,03,13,34,20.00
2019,06,03,13,35,20.20
2019,06,03,13,36,20.20
2019,06,03,13,37,20.20
2019,06,03,13,38,20.20
2019,06,03,13,39,20.30
2019,06,03,13,40,20.40
2019,06,03,13,41,20.40
2019,06,03,13,42,20.40
2019,06,03,13,43,20.40
2019,06,03,13,44,20.30
2019,06,03,13,45,20.30
2019,06,03,13,46,20.30
2019,06,03,13,47,20.40
2019,06,03,13,48,20.40
2019,06,03,13,49,20.50
2019,06,03,13,50,20.50
2019,06,03,13,51,20.50
2019,06,03,13,52,20.30
2019,06,03,13,53,20.20
2019,06,03,13,54,20.10
2019,06,03,13,55,20.10
2019,06,03,13,56,20.00
2019,06,03,13,57,19.90
2019,06,03,13,58,19.90
2019,06,03,13,59,19.90
2019,06,03,14,00,19.90
2019,06,03,14,01,19.70
2019,06,03,14,02,19.40
2019,06,03,14,03,19.30
2019,06,03,14,04,19.30
2019,06,03,14,05,19.40
2019,06,03,14,06,19.50
2019,06,03,14,07,19.50
2019,06,03,14,08,19.50
2019,06,03,14,09,19.40
2019,06,03,14,10,19.40
2019,06,03,14,11,19.30
2019,06,03,14,12,19.20
2019,06,03,14,13,19.10
2019,06,03,14,14,18.90
2019,06,03,14,15,18.90
2019,06,03,14,16,18.70
2019,06,03,14,17,18.60
2019,06,03,14,18,18.60
2019,06,03,14,19,18.50
2019,06,03,14,20,18.50
2019,06,03,14,21,18.40
2019,06,03,14,22,18.30
2019,06,03,14,23,18.20
2019,06,03,14,24,18.20
2019,06,03,14,25,18.20
2019,06,03,14,26,18.20
2019,06,03,14,27,18.30
2019,06,03,14,28,18.30
2019,06,03,14,29,18.40
2019,06,03,14,30,18.50
2019,06,03,14,31,18.50
2019,06,03,14,32,18.60
2019,06,03,14,33,18.60
2019,06,03,14,34,18.80
2019,06,03,14,35,18.80
2019,06,03,14,36,18.80
2019,06,03,14,37,18.80
2019,06,03,14,38,18.80
2019,06,03,14,39,18.90
2019,06,03,14,40,19.00
2019,06,03,14,41,19.10
2019,06,03,14,42,19.20
2019,06,03,14,43,19.20
2019,06,03,14,44,19.10
2019,06,03,14,45,19.20
2019,06,03,14,46,19.20
2019,06,03,14,47,19.30
2019,06,03,14,48,19.40
2019,06,03,14,49,19.40
2019,06,03,14,50,19.50
2019,06,03,14,51,19.40
2019,06,03,14,52,19.50
2019,06,03,14,53,19.60
2019,06,03,14,54,19.60
2019,06,03,14,55,19.60
2019,06,03,14,56,19.50
2019,06,03,14,57,19.40
2019,06,03,14,58,19.30
2019,06,03,14,59,19.20
2019,06,03,15,00,19.10
2019,06,03,15,01,19.10
2019,06,03,15,02,19.10
2019,06,03,15,03,19.10
2019,06,03,15,04,19.10
2019,06,03,15,05,19.10
2019,06,03,15,06,19.30
2019,06,03,15,07,19.30
2019,06,03,15,08,19.40
2019,06,03,15,09,19.40
2019,06,03,15,10,19.30
2019,06,03,15,11,19.30
2019,06,03,15,12,19.30
2019,06,03,15,13,19.30
2019,06,03,15,14,19.40
2019,06,03,15,15,19.40
2019,06,03,15,16,19.40
2019,06,03,15,17,19.40
2019,06,03,15,18,19.50
2019,06,03,15,19,19.50
2019,06,03,15,20,19.60
2019,06,03,15,21,19.80
2019,06,03,15,22,19.90
2019,06,03,15,23,20.00
2019,06,03,15,24,20.10
2019,06,03,15,25,20.20
2019,06,03,15,26,20.20
2019,06,03,15,27,20.20
2019,06,03,15,28,20.20
2019,06,03,15,29,20.10
2019,06,03,15,30,20.10
2019,06,03,15,31,19.90
2019,06,03,15,32,19.90
2019,06,03,15,33,19.80
2019,06,03,15,34,19.80
2019,06,03,15,35,19.70
2019,06,03,15,36,19.70
2019,06,03,15,37,19.60
2019,06,03,15,38,19.60
2019,06,03,15,39,19.60
2019,06,03,15,40,19.60
2019,06,03,15,41,19.50
2019,06,03,15,42,19.50
2019,06,03,15,43,19.50
2019,06,03,15,44,19.50
2019,06,03,15,45,19.50
2019,06,03,15,46,19.50
2019,06,03,15,47,19.40
2019,06,03,15,48,19.40
2019,06,03,15,49,19.40
2019,06,03,15,50,19.40
2019,06,03,15,51,19.20
2019,06,03,15,52,19.20
2019,06,03,15,53,19.20
2019,06,03,15,54,19.20
2019,06,03,15,55,19.20
2019,06,03,15,56,19.20
2019,06,03,15,57,19.30
2019,06,03,15,58,19.20
2019,06,03,15,59,19.20
2019,06,03,16,00,19.20
2019,06,03,16,01,19.10
2019,06,03,16,02,19.10
2019,06,03,16,03,19.10
2019,06,03,16,04,19.00
2019,06,03,16,05,18.90
2019,06,03,16,06,18.90
2019,06,03,16,07,18.90
2019,06,03,16,08,18.90
2019,06,03,16,09,18.80
2019,06,03,16,10,18.80
2019,06,03,16,11,18.80
2019,06,03,16,12,18.70
2019,06,03,16,13,18.70
2019,06,03,16,14,18.70
2019,06,03,16,15,18.70
2019,06,03,16,16,18.70
2019,06,03,16,17,18.70
2019,06,03,16,18,18.70
2019,06,03,16,19,18.70
2019,06,03,16,20,18.70
2019,06,03,16,21,18.80
2019,06,03,16,22,18.80
2019,06,03,16,23,18.80
2019,06,03,16,24,18.80
2019,06,03,16,25,18.80
2019,06,03,16,26,18.80
2019,06,03,16,27,18.70
2019,06,03,16,28,18.70
2019,06,03,16,29,18.70
2019,06,03,16,30,18.70
2019,06,03,16,31,18.60
2019,06,03,16,32,18.70
2019,06,03,16,33,18.60
2019,06,03,16,34,18.60
2019,06,03,16,35,18.60
2019,06,03,16,36,18.70
2019,06,03,16,37,18.70
2019,06,03,16,38,18.70
2019,06,03,16,39,18.70
2019,06,03,16,40,18.70
2019,06,03,16,41,18.70
2019,06,03,16,42,18.60
2019,06,03,16,43,18.60
2019,06,03,16,44,18.60
2019,06,03,16,45,18.60
2019,06,03,16,46,18.60
2019,06,03,16,47,18.60
2019,06,03,16,48,18.60
2019,06,03,16,49,18.50
2019,06,03,16,50,18.50
2019,06,03,16,51,18.50
2019,06,03,16,52,18.50
2019,06,03,16,53,18.40
2019,06,03,16,54,18.40
2019,06,03,16,55,18.40
2019,06,03,16,56,18.40
2019,06,03,16,57,18.40
2019,06,03,16,58,18.40
2019,06,03,16,59,18.40
2019,06,03,17,00,18.40
2019,06,03,17,01,18.40
2019,06,03,17,02,18.50
2019,06,03,17,03,18.50
2019,06,03,17,04,18.50
2019,06,03,17,05,18.40
2019,06,03,17,06,18.40
2019,06,03,17,07,18.40
2019,06,03,17,08,18.40
2019,06,03,17,09,18.40
2019,06,03,17,10,18.40
2019,06,03,17,11,18.40
2019,06,03,17,12,18.40
2019,06,03,17,13,18.40
2019,06,03,17,14,18.40
2019,06,03,17,15,18.40
2019,06,03,17,16,18.40
2019,06,03,17,17,18.40
2019,06,03,17,18,18.50
2019,06,03,17,19,18.50
2019,06,03,17,20,18.50
2019,06,03,17,21,18.50
2019,06,03,17,22,18.50
2019,06,03,17,23,18.50
2019,06,03,17,24,18.50
2019,06,03,17,25,18.50
2019,06,03,17,26,18.40
2019,06,03,17,27,18.40
2019,06,03,17,28,18.40
2019,06,03,17,29,18.30
2019,06,03,17,30,18.30